Weather in Vileyka

Belarus     54˚29′16″N   26˚54′54″E
temp.,
°C
wind,
m/s
gust,
m/s
humid.,
%
clouds,
%
prec.,
mm/h
press.,
hPa
HPBL,
m
3 december, thu
thu300:00−3˚se269691 0.2 1026313
03:00−4˚se369685 0.3 1025225
06:00−4˚se379581 0.1 1024329
09:00−3˚sse489680 0.4 1024415
12:00−2˚sse598790 0.2 1023651
15:00−2˚sse598893 0.2 1023741
18:00−2˚se5109199 0.1 1022648
21:00−1˚sse5118997 0.1 1021817
4 december, fri
fri400:00sse61289100 0.0 1020876
03:00+1˚sse61288100 0.0 1020844
06:00+1˚sse61388100 0.0 1018854
09:00+2˚sse61490100 0.0 1018810
12:00+2˚sse81492100 0.0 1018854
15:00+2˚sse61390100 0.0 1018814
18:00+2˚sse71489100 0.0 1018834
21:00+3˚sse71489100 0.0 1018813
5 december, sat
sat500:00+4˚sse71690100 0.0 1018800
03:00+4˚sse71689100 0.0 1019681
06:00+4˚sse71590100 0.0 1019596
09:00+3˚sse6149295 0.0 1021592
12:00+4˚sse61490100 0.0 1021616
15:00+4˚sse61488100 0.0 1022697
18:00+3˚sse61488100 0.0 1023699
21:00+4˚sse6148595 0.0 1024796
6 december, sun
sun600:00+3˚sse6138790 0.0 1025739
03:00+3˚sse6138595 0.0 1026789
06:00+2˚sse61485100 0.0 1026698
09:00se6148878 0.0 1027523
12:00+1˚se7147924 0.0 1028609
15:00+1˚se7137312 0.0 1027653
18:00−1˚se614660 0.0 1028546
21:00−2˚se715570 0.0 1028511
7 december, mon
mon700:00−2˚se715550 0.0 1028531
03:00−2˚se715540 0.0 1028562
06:00−3˚se715610 0.0 1027551
09:00−3˚se716560 0.0 1027613
12:00−2˚se816490 0.0 1027695
15:00−1˚se714470 0.0 1026806
18:00−2˚se7155428 0.0 1026717
21:00−2˚se7155756 0.0 1026666